�������l�o���
Date,Time,MP-1(��Sv/h),MP-2(��Sv/h),MP-3(��Sv/h),MP-4(��Sv/h),MP-5(��Sv/h),MP-6(��Sv/h),MP-7(��Sv/h),����,����(m/s),���J
2022/12/30,00:00,0.155,0.141,0.217,0.216,0.215,0.123,0.079,���k��,3.3,��
2022/12/30,00:10,0.155,0.141,0.218,0.216,0.214,0.123,0.079,���k��,2.5,��
2022/12/30,00:20,0.156,0.140,0.218,0.214,0.214,0.124,0.079,�k�k��,2.9,��
2022/12/30,00:30,0.156,0.140,0.218,0.215,0.214,0.123,0.079,�k��,2.8,��
2022/12/30,00:40,0.157,0.141,0.218,0.215,0.214,0.123,0.080,�k��,2.7,��
2022/12/30,00:50,0.155,0.140,0.218,0.216,0.216,0.124,0.080,�k��,2.5,��
2022/12/30,01:00,0.155,0.140,0.218,0.215,0.214,0.123,0.079,�k�k��,1.6,��
2022/12/30,01:10,0.154,0.139,0.218,0.214,0.214,0.123,0.080,�k,1.4,��
2022/12/30,01:20,0.156,0.140,0.218,0.214,0.214,0.124,0.079,�k,1.9,��
2022/12/30,01:30,0.155,0.140,0.217,0.215,0.214,0.123,0.079,�k��,1.2,��
2022/12/30,01:40,0.155,0.140,0.218,0.214,0.213,0.123,0.079,�k,2.7,��
2022/12/30,01:50,0.156,0.140,0.218,0.215,0.214,0.123,0.079,�k�k��,3.8,��
2022/12/30,02:00,0.155,0.140,0.217,0.214,0.214,0.123,0.079,�k�k��,3.8,��
2022/12/30,02:10,0.155,0.140,0.217,0.215,0.214,0.123,0.079,�k�k��,3.2,��
2022/12/30,02:20,0.155,0.140,0.217,0.214,0.213,0.123,0.079,�k�k��,3.4,��
2022/12/30,02:30,0.155,0.140,0.217,0.216,0.213,0.123,0.079,�k�k��,3.6,��
2022/12/30,02:40,0.154,0.140,0.217,0.214,0.213,0.124,0.079,�k�k��,2.6,��
2022/12/30,02:50,0.156,0.140,0.217,0.216,0.214,0.122,0.080,�k�k��,1.6,��
2022/12/30,03:00,0.155,0.139,0.217,0.215,0.213,0.123,0.078,�k��,2.2,��
2022/12/30,03:10,0.156,0.140,0.218,0.215,0.214,0.122,0.079,�k�k��,2.8,��
2022/12/30,03:20,0.156,0.140,0.217,0.214,0.212,0.123,0.080,�k��,2.7,��
2022/12/30,03:30,0.155,0.140,0.217,0.213,0.213,0.124,0.078,���k��,2.2,��
2022/12/30,03:40,0.155,0.140,0.217,0.214,0.214,0.122,0.078,-,CALM,��
2022/12/30,03:50,0.155,0.140,0.217,0.213,0.214,0.123,0.078,��쓌,1.1,��
2022/12/30,04:00,0.155,0.140,0.217,0.215,0.214,0.123,0.079,��쐼,1.1,��
2022/12/30,04:10,0.155,0.141,0.216,0.213,0.214,0.124,0.079,��,1.9,��
2022/12/30,04:20,0.154,0.139,0.218,0.215,0.214,0.123,0.079,��,1.1,��
2022/12/30,04:30,0.155,0.140,0.217,0.214,0.214,0.123,0.079,��쓌,0.8,��
2022/12/30,04:40,0.154,0.140,0.218,0.214,0.213,0.123,0.079,�쓌,2.1,��
2022/12/30,04:50,0.154,0.139,0.217,0.215,0.214,0.123,0.078,�쓌,1.1,��
2022/12/30,05:00,0.154,0.140,0.218,0.214,0.213,0.122,0.079,-,CALM,��
2022/12/30,05:10,0.156,0.140,0.218,0.214,0.213,0.124,0.079,�k��,1.2,��
2022/12/30,05:20,0.154,0.140,0.215,0.213,0.214,0.122,0.079,���k��,1.8,��
2022/12/30,05:30,0.155,0.139,0.217,0.214,0.214,0.123,0.079,���쐼,1.5,��
2022/12/30,05:40,0.155,0.139,0.217,0.214,0.214,0.122,0.078,��,1.2,��
2022/12/30,05:50,0.154,0.139,0.217,0.213,0.213,0.123,0.079,-,CALM,��
2022/12/30,06:00,0.154,0.140,0.216,0.214,0.213,0.123,0.079,-,CALM,��
2022/12/30,06:10,0.155,0.140,0.218,0.214,0.214,0.124,0.078,-,CALM,��
2022/12/30,06:20,0.155,0.139,0.217,0.214,0.214,0.123,0.079,�쐼,0.9,��
2022/12/30,06:30,0.155,0.140,0.217,0.215,0.213,0.123,0.079,��,1.5,��
2022/12/30,06:40,0.154,0.139,0.217,0.214,0.213,0.123,0.079,���쐼,0.7,��
2022/12/30,06:50,0.155,0.140,0.218,0.214,0.214,0.123,0.079,���k��,0.8,��
2022/12/30,07:00,0.155,0.140,0.216,0.214,0.213,0.123,0.078,��,0.6,��
2022/12/30,07:10,0.155,0.140,0.216,0.213,0.213,0.122,0.079,-,CALM,��
2022/12/30,07:20,0.155,0.139,0.216,0.213,0.213,0.123,0.079,�k�k��,0.8,��
2022/12/30,07:30,0.155,0.139,0.217,0.214,0.213,0.123,0.079,�k�k��,1.3,��
2022/12/30,07:40,0.155,0.140,0.217,0.213,0.214,0.123,0.079,�k,1.0,��
2022/12/30,07:50,0.154,0.139,0.217,0.213,0.212,0.122,0.079,�k�k��,2.1,��
2022/12/30,08:00,0.154,0.140,0.217,0.212,0.212,0.123,0.079,�k,2.0,��
2022/12/30,08:10,0.154,0.139,0.215,0.213,0.214,0.122,0.078,�k,1.8,��
2022/12/30,08:20,0.154,0.139,0.216,0.214,0.213,0.122,0.078,�k�k��,3.4,��
2022/12/30,08:30,0.154,0.138,0.217,0.214,0.212,0.122,0.078,�k�k��,2.2,��
2022/12/30,08:40,0.154,0.138,0.215,0.213,0.212,0.122,0.078,�k,1.5,��
2022/12/30,08:50,0.154,0.139,0.216,0.212,0.213,0.122,0.078,�k�k��,1.2,��
2022/12/30,09:00,0.155,0.139,0.216,0.214,0.213,0.122,0.078,�k�k��,0.8,��
2022/12/30,09:10,0.154,0.140,0.217,0.213,0.213,0.121,0.078,�k��,1.8,��
2022/12/30,09:20,0.153,0.139,0.216,0.212,0.213,0.123,0.078,�k��,1.5,��
2022/12/30,09:30,0.154,0.139,0.215,0.212,0.213,0.123,0.078,-,CALM,��
2022/12/30,09:40,0.154,0.139,0.216,0.212,0.212,0.123,0.077,��,1.2,��
2022/12/30,09:50,0.154,0.138,0.216,0.212,0.212,0.122,0.078,���쓌,1.5,��
2022/12/30,10:00,0.154,0.139,0.217,0.213,0.213,0.123,0.078,��,1.6,��
2022/12/30,10:10,0.153,0.139,0.215,0.213,0.213,0.123,0.078,���쓌,1.0,��
2022/12/30,10:20,0.153,0.137,0.217,0.212,0.213,0.124,0.078,���쓌,1.7,��
2022/12/30,10:30,0.154,0.140,0.215,0.214,0.213,0.122,0.078,���쓌,2.1,��
2022/12/30,10:40,0.154,0.138,0.215,0.213,0.213,0.123,0.079,���쓌,1.9,��
2022/12/30,10:50,0.153,0.138,0.214,0.212,0.214,0.123,0.078,���k��,2.4,��
2022/12/30,11:00,0.154,0.140,0.215,0.214,0.213,0.123,0.079,��,1.3,��
2022/12/30,11:10,0.155,0.139,0.216,0.212,0.213,0.123,0.078,���쓌,1.8,��
2022/12/30,11:20,0.154,0.138,0.214,0.213,0.213,0.124,0.078,���k��,1.3,��
2022/12/30,11:30,0.153,0.139,0.215,0.214,0.212,0.123,0.079,��,4.8,��
2022/12/30,11:40,0.154,0.140,0.215,0.214,0.213,0.123,0.078,�k�k��,5.7,��
2022/12/30,11:50,0.153,0.138,0.216,0.214,0.213,0.123,0.079,���k��,6.2,��
2022/12/30,12:00,0.153,0.140,0.216,0.214,0.214,0.123,0.078,���k��,7.7,��
2022/12/30,12:10,0.153,0.139,0.216,0.214,0.212,0.123,0.078,���k��,6.0,��
2022/12/30,12:20,0.154,0.139,0.216,0.213,0.214,0.123,0.078,���k��,6.4,��
2022/12/30,12:30,0.153,0.140,0.217,0.214,0.212,0.123,0.078,�k�k��,4.1,��
2022/12/30,12:40,0.153,0.138,0.217,0.212,0.213,0.122,0.079,�k��,2.8,��
2022/12/30,12:50,0.154,0.140,0.216,0.213,0.214,0.124,0.078,���k��,6.2,��
2022/12/30,13:00,0.155,0.140,0.216,0.213,0.214,0.123,0.078,��,5.2,��
2022/12/30,13:10,0.153,0.138,0.216,0.213,0.214,0.123,0.078,��,6.3,��
2022/12/30,13:20,0.153,0.140,0.217,0.214,0.214,0.122,0.078,���k��,7.9,��
2022/12/30,13:30,0.155,0.139,0.217,0.213,0.213,0.123,0.078,���k��,9.8,��
2022/12/30,13:40,0.154,0.140,0.216,0.213,0.214,0.123,0.078,���k��,8.6,��
2022/12/30,13:50,0.154,0.140,0.217,0.213,0.213,0.124,0.078,���k��,9.0,��
2022/12/30,14:00,0.154,0.139,0.217,0.213,0.214,0.123,0.079,���k��,8.4,��
2022/12/30,14:10,0.154,0.139,0.217,0.214,0.212,0.123,0.078,���k��,7.3,��
2022/12/30,14:20,0.154,0.139,0.218,0.214,0.214,0.122,0.078,�k��,5.5,��
2022/12/30,14:30,0.155,0.140,0.217,0.214,0.214,0.123,0.078,���k��,5.4,��
2022/12/30,14:40,0.154,0.140,0.216,0.213,0.213,0.122,0.078,�k��,3.9,��
2022/12/30,14:50,0.155,0.140,0.217,0.214,0.215,0.123,0.078,�k��,6.1,��
2022/12/30,15:00,0.155,0.140,0.217,0.213,0.214,0.122,0.078,���k��,6.0,��
2022/12/30,15:10,0.154,0.139,0.217,0.214,0.214,0.123,0.078,���k��,7.3,��
2022/12/30,15:20,0.155,0.140,0.217,0.214,0.216,0.123,0.078,���k��,7.3,��
2022/12/30,15:30,0.154,0.140,0.216,0.214,0.213,0.123,0.078,�k��,5.3,��
2022/12/30,15:40,0.155,0.140,0.218,0.215,0.213,0.123,0.078,���k��,5.5,��
2022/12/30,15:50,0.154,0.140,0.217,0.216,0.214,0.123,0.078,���k��,4.3,��
2022/12/30,16:00,0.154,0.140,0.217,0.214,0.214,0.123,0.078,���k��,4.6,��
2022/12/30,16:10,0.155,0.139,0.216,0.214,0.213,0.123,0.079,���k��,4.2,��
2022/12/30,16:20,0.154,0.141,0.217,0.214,0.214,0.123,0.078,���쐼,2.3,��
2022/12/30,16:30,0.155,0.140,0.217,0.214,0.214,0.123,0.078,���쐼,2.1,��
2022/12/30,16:40,0.154,0.139,0.216,0.214,0.213,0.123,0.078,��,2.5,��
2022/12/30,16:50,0.154,0.139,0.217,0.214,0.214,0.123,0.077,���k��,3.7,��
2022/12/30,17:00,0.154,0.140,0.217,0.214,0.215,0.123,0.078,���k��,2.9,��
2022/12/30,17:10,0.154,0.139,0.216,0.214,0.213,0.123,0.078,���쐼,1.4,��
2022/12/30,17:20,0.155,0.139,0.216,0.214,0.213,0.123,0.078,���쐼,3.5,��
2022/12/30,17:30,0.155,0.139,0.218,0.214,0.213,0.123,0.078,���쐼,3.3,��
2022/12/30,17:40,0.154,0.140,0.217,0.213,0.214,0.122,0.078,��,4.7,��
2022/12/30,17:50,0.155,0.140,0.217,0.214,0.213,0.123,0.078,��,4.2,��
2022/12/30,18:00,0.154,0.140,0.217,0.214,0.213,0.123,0.077,��,4.3,��
2022/12/30,18:10,0.155,0.139,0.216,0.215,0.214,0.123,0.078,���k��,5.0,��
2022/12/30,18:20,0.154,0.140,0.217,0.214,0.213,0.122,0.078,��,2.9,��
2022/12/30,18:30,0.154,0.139,0.217,0.214,0.213,0.123,0.077,�쐼,0.9,��
2022/12/30,18:40,0.154,0.140,0.216,0.214,0.212,0.123,0.078,�쐼,1.2,��
2022/12/30,18:50,0.155,0.139,0.218,0.214,0.213,0.122,0.078,��,2.3,��
2022/12/30,19:00,0.153,0.139,0.217,0.214,0.215,0.123,0.079,��,2.3,��
2022/12/30,19:10,0.155,0.140,0.217,0.214,0.214,0.123,0.078,���k��,2.3,��
2022/12/30,19:20,0.155,0.140,0.217,0.215,0.213,0.123,0.079,��,2.0,��
2022/12/30,19:30,0.154,0.140,0.216,0.215,0.213,0.123,0.077,-,CALM,��
2022/12/30,19:40,0.154,0.139,0.216,0.215,0.214,0.123,0.078,���쐼,0.7,��
2022/12/30,19:50,0.154,0.139,0.216,0.213,0.213,0.123,0.078,-,CALM,��
2022/12/30,20:00,0.155,0.139,0.217,0.214,0.214,0.122,0.078,�쐼,0.8,��
2022/12/30,20:10,0.155,0.139,0.217,0.214,0.213,0.122,0.078,-,CALM,��
2022/12/30,20:20,0.154,0.140,0.217,0.214,0.214,0.123,0.079,-,CALM,��
2022/12/30,20:30,0.154,0.139,0.216,0.214,0.213,0.122,0.079,���쐼,0.6,��
2022/12/30,20:40,0.155,0.139,0.215,0.214,0.213,0.122,0.079,��,1.3,��
2022/12/30,20:50,0.154,0.140,0.217,0.214,0.212,0.123,0.078,���k��,1.3,��
2022/12/30,21:00,0.155,0.140,0.217,0.214,0.213,0.124,0.078,��,4.2,��
2022/12/30,21:10,0.155,0.141,0.216,0.215,0.214,0.122,0.079,��,3.8,��
2022/12/30,21:20,0.155,0.139,0.218,0.214,0.214,0.122,0.078,��,3.9,��
2022/12/30,21:30,0.154,0.139,0.217,0.213,0.214,0.122,0.078,��,3.9,��
2022/12/30,21:40,0.154,0.140,0.217,0.215,0.213,0.123,0.079,��,2.4,��
2022/12/30,21:50,0.155,0.140,0.217,0.214,0.214,0.123,0.078,�k�k��,1.5,��
2022/12/30,22:00,0.155,0.139,0.217,0.215,0.213,0.122,0.078,-,CALM,��
2022/12/30,22:10,0.154,0.139,0.217,0.214,0.213,0.123,0.079,-,CALM,��
2022/12/30,22:20,0.155,0.140,0.217,0.214,0.213,0.123,0.079,��쓌,1.1,��
2022/12/30,22:30,0.155,0.140,0.217,0.213,0.213,0.123,0.078,��쓌,1.4,��
2022/12/30,22:40,0.154,0.139,0.218,0.215,0.214,0.123,0.078,��,1.7,��
2022/12/30,22:50,0.155,0.140,0.217,0.214,0.213,0.123,0.079,��,1.0,��
2022/12/30,23:00,0.154,0.139,0.217,0.213,0.213,0.122,0.078,��,1.0,��
2022/12/30,23:10,0.154,0.141,0.218,0.213,0.213,0.122,0.079,�k,0.9,��
2022/12/30,23:20,0.154,0.140,0.217,0.216,0.213,0.123,0.079,�k,1.0,��
2022/12/30,23:30,0.155,0.140,0.216,0.214,0.214,0.123,0.079,�k,1.9,��
2022/12/30,23:40,0.154,0.140,0.217,0.214,0.213,0.123,0.079,�k��,1.4,��
2022/12/30,23:50,0.154,0.140,0.217,0.214,0.213,0.121,0.079,�k,2.1,��
